Change the Weather History Date:

Thursday, October 4, 2012

  Actual Average Record
Temperature  
Mean Temperature 63 °F 57 °F  
Max Temperature 77 °F 67 °F 87 °F (2005)
Min Temperature 49 °F 46 °F 36 °F (2004)
Degree Days  
Heating Degree Days 2 9  
Month to date heating degree days 20 35  
Since 1 July heating degree days 154 147  
Cooling Degree Days 0 1  
Month to date cooling degree days 0 4  
Year to date cooling degree days 1225 782  
Growing Degree Days 15 (Base 50)    
Moisture  
Dew Point 52 °F    
Average Humidity 73    
Maximum Humidity 90    
Minimum Humidity 47    
Precipitation  
Precipitation 0.05 in 0.10 in 0.64 in (2001)
Month to date precipitation 0.41 0.49  
Year to date precipitation 16.70 26.18  
Sea Level Pressure  
Sea Level Pressure 30.04 in    
Wind  
Wind Speed 9 mph (SW)    
Max Wind Speed 21 mph    
Max Gust Speed 32 mph    
Visibility 9 miles    
Events Rain    
T = Trace of Precipitation, MM = Missing Value Source: NWS Daily Summary

Daily Weather History Graph

Daily Weather History Graph

Search for Another Location

Airport or City:

Trip Planner

Search our weather history database for the weather conditions in past years. The results will help you decide how hot, cold, wet, or windy it might be!

Date:

Astronomy

Oct. 04, 2012 Rise Set
Actual Time 6:52 AM CDT 6:27 PM CDT
Civil Twilight 6:24 AM CDT 6:55 PM CDT
Nautical Twilight 5:52 AM CDT 7:27 PM CDT
Astronomical Twilight 5:19 AM CDT 8:00 PM CDT
Moon 8:57 PM CDT (10/4) 11:13 AM CDT (10/4)
Length of Visible Light 12h 30m
Length of Day
11h 34m
Waning Gibbous, 82% of the Moon is Illuminated
Oct 4
Waning Gibbous
Oct 8
Last Quarter
Oct 15
New
Oct 21
First Quarter
Oct 29
Full

Hourly Weather History & Observations

Time (CDT) Temp. Dew Point Humidity Pressure Visibility Wind Dir Wind Speed Gust Speed Precip Events Conditions
12:52 AM 60.1 °F 55.9 °F 86% 30.04 in 7.0 mi SW 3.5 mph - N/A   Scattered Clouds
1:52 AM 59.0 °F 55.9 °F 90% 30.04 in 7.0 mi SSW 3.5 mph - N/A   Overcast
2:52 AM 59.0 °F 55.9 °F 90% 30.04 in 7.0 mi South 3.5 mph - N/A   Overcast
3:52 AM 57.9 °F 55.0 °F 90% 30.05 in 7.0 mi South 4.6 mph - N/A   Mostly Cloudy
4:52 AM 57.0 °F 54.0 °F 89% 30.05 in 9.0 mi South 3.5 mph - N/A   Overcast
5:52 AM 57.0 °F 53.1 °F 87% 30.05 in 10.0 mi SSW 4.6 mph - N/A   Clear
6:52 AM 55.9 °F 52.0 °F 87% 30.05 in 10.0 mi SSW 3.5 mph - N/A   Clear
7:52 AM 57.9 °F 53.1 °F 84% 30.05 in 10.0 mi South 5.8 mph - N/A   Clear
8:52 AM 62.1 °F 55.0 °F 78% 30.05 in 10.0 mi SSW 6.9 mph - N/A   Clear
9:52 AM 66.0 °F 55.0 °F 68% 30.04 in 10.0 mi SSW 11.5 mph - N/A   Clear
10:52 AM 71.1 °F 55.0 °F 57% 30.03 in 10.0 mi SSW 9.2 mph - N/A   Clear
11:52 AM 73.9 °F 54.0 °F 50% 30.01 in 10.0 mi SSW 16.1 mph - N/A   Clear
12:52 PM 77.0 °F 55.0 °F 47% 29.97 in 10.0 mi South 17.3 mph 24.2 mph N/A   Clear
1:52 PM 77.0 °F 55.9 °F 48% 29.97 in 10.0 mi SW 15.0 mph 25.3 mph N/A   Clear
2:52 PM 73.0 °F 55.9 °F 55% 29.99 in 10.0 mi WSW 15.0 mph 24.2 mph 0.00 in Rain Light Rain
3:52 PM 66.0 °F 59.0 °F 78% 30.00 in 10.0 mi West 12.7 mph - 0.03 in   Mostly Cloudy
4:52 PM 63.0 °F 50.0 °F 63% 30.04 in 10.0 mi WSW 13.8 mph 24.2 mph N/A   Overcast
5:52 PM 57.0 °F 46.9 °F 69% 30.07 in 8.0 mi WSW 15.0 mph 25.3 mph 0.00 in Rain Light Rain
6:52 PM 54.0 °F 48.9 °F 83% 30.07 in 10.0 mi West 9.2 mph - 0.02 in   Mostly Cloudy
8:52 PM 54.0 °F 46.9 °F 77% 30.08 in 10.0 mi West 10.4 mph - N/A   Overcast
10:52 PM 53.1 °F 41.0 °F 64% 30.10 in 10.0 mi West 9.2 mph - N/A   Partly Cloudy
11:52 PM 51.1 °F 36.0 °F 56% 30.13 in 10.0 mi WNW 9.2 mph - N/A   Clear